TimeEDT,TemperatureF,Dew PointF,Humidity,Sea Level PressureIn,VisibilityMPH,Wind Direction,Wind SpeedMPH,Gust SpeedMPH,PrecipitationIn,Events,Conditions,WindDirDegrees,DateUTC
12:53 AM,72.0,68.0,87,30.05,8.0,SW,4.6,-,N/A,,Mostly Cloudy,220,2013-06-23 04:53:00
1:53 AM,71.1,68.0,90,30.05,7.0,SSE,6.9,-,N/A,,Mostly Cloudy,150,2013-06-23 05:53:00
2:53 AM,70.0,68.0,93,30.04,7.0,SSE,4.6,-,N/A,,Mostly Cloudy,160,2013-06-23 06:53:00
3:53 AM,70.0,68.0,93,30.05,5.0,South,5.8,-,N/A,,Overcast,170,2013-06-23 07:53:00
4:47 AM,69.8,66.2,88,30.05,2.5,South,5.8,-,N/A,,Overcast,170,2013-06-23 08:47:00
4:53 AM,70.0,66.9,90,30.04,2.5,South,5.8,-,N/A,,Overcast,180,2013-06-23 08:53:00
5:29 AM,69.8,68.0,94,30.06,3.0,South,5.8,-,N/A,,Overcast,170,2013-06-23 09:29:00
5:53 AM,71.1,68.0,90,30.06,3.0,SW,6.9,-,N/A,,Overcast,230,2013-06-23 09:53:00
6:53 AM,71.1,66.9,87,30.07,3.0,SSW,6.9,-,N/A,,Overcast,210,2013-06-23 10:53:00
7:53 AM,72.0,66.9,84,30.08,6.0,South,10.4,-,N/A,,Haze,190,2013-06-23 11:53:00
8:53 AM,75.0,68.0,79,30.08,10.0,South,11.5,-,N/A,,Overcast,180,2013-06-23 12:53:00
9:53 AM,75.9,68.0,76,30.07,10.0,South,9.2,-,N/A,,Mostly Cloudy,190,2013-06-23 13:53:00
10:53 AM,81.0,68.0,65,30.07,10.0,South,11.5,-,N/A,,Mostly Cloudy,180,2013-06-23 14:53:00
11:53 AM,82.9,66.9,58,30.07,10.0,South,12.7,-,N/A,,Mostly Cloudy,190,2013-06-23 15:53:00
12:53 PM,84.0,66.9,56,30.06,10.0,SW,11.5,-,N/A,,Scattered Clouds,220,2013-06-23 16:53:00
1:53 PM,86.0,68.0,55,30.05,10.0,SSW,11.5,19.6,N/A,,Scattered Clouds,200,2013-06-23 17:53:00
2:53 PM,87.1,69.1,55,30.04,10.0,SW,12.7,-,N/A,,Scattered Clouds,220,2013-06-23 18:53:00
3:53 PM,89.1,69.1,52,30.02,10.0,South,13.8,21.9,N/A,,Scattered Clouds,190,2013-06-23 19:53:00
4:53 PM,89.1,68.0,50,30.01,10.0,SSW,15.0,-,N/A,,Scattered Clouds,210,2013-06-23 20:53:00
5:53 PM,89.1,66.9,48,29.99,10.0,SW,12.7,-,N/A,,Scattered Clouds,220,2013-06-23 21:53:00
6:53 PM,88.0,66.0,48,29.98,10.0,SSW,10.4,-,N/A,,Partly Cloudy,200,2013-06-23 22:53:00
7:53 PM,87.1,66.9,51,29.99,10.0,South,11.5,-,N/A,,Scattered Clouds,180,2013-06-23 23:53:00
8:53 PM,84.9,66.0,53,29.99,10.0,SSW,6.9,-,N/A,,Scattered Clouds,200,2013-06-24 00:53:00
9:53 PM,82.0,68.0,62,30.01,10.0,South,5.8,-,N/A,,Scattered Clouds,170,2013-06-24 01:53:00
10:53 PM,78.1,64.0,62,30.05,10.0,SSW,17.3,-,N/A,,Mostly Cloudy,200,2013-06-24 02:53:00
11:53 PM,75.9,64.0,67,30.02,10.0,SSW,9.2,-,N/A,,Mostly Cloudy,200,2013-06-24 03:53:00